Regional Weather Roundup
Issued by NWS

Home | Current Version | Previous Version | Graphics & Text | Print | Product List | Glossary On
Versions: 1 2 3 4 5 6 7 8 9 10 11 12 13 14 15 16 17 18 19 20 21 22 23 24 25 26 27 28 29 30 31 32 33 34 35 36 37 38 39 40 41 42 43 44 45 46 47 48 49 50
000
ASUS43 KBIS 010602
RWRND

NORTH DAKOTA REGIONAL WEATHER ROUNDUP
NATIONAL WEATHER SERVICE BISMARCK ND
100 AM CDT SAT AUG 01 2015

NOTE: "FAIR" INDICATES FEW OR NO CLOUDS BELOW 12,000 FEET WITH NO
SIGNIFICANT WEATHER AND/OR OBSTRUCTIONS TO VISIBILITY.


NDZ001>003-009>011-017-010700-
NORTHWEST NORTH DAKOTA

CITY           SKY/WX    TMP DP  RH WIND       PRES   REMARKS
WILLISTON      CLEAR     66  52  60 N6        30.03S
6HR MIN TEMP:  66; 6HR MAX TEMP:  89;

MINOT          CLEAR     62  52  69 SW6       30.01S
$$

NDZ018>021-031>035-040>046-010700-
SOUTHWEST NORTH DAKOTA

CITY           SKY/WX    TMP DP  RH WIND       PRES   REMARKS
BISMARCK       MOCLDY    63  58  83 NE3       30.04S
6HR MIN TEMP:  60; 6HR MAX TEMP:  86;

DICKINSON      CLEAR     59  50  72 E9        30.03S
GARRISON         N/A     59  54  83 CALM      30.03F
6HR MIN TEMP:  58; 6HR MAX TEMP:  82;

HETTINGER ARPT CLEAR     66  47  50 SE8       30.06F
$$

NDZ004>008-012>016-024-026-027-054-010700-
NORTHEAST NORTH DAKOTA

CITY           SKY/WX    TMP DP  RH WIND       PRES   REMARKS
GRAND FORKS    CLEAR     57  52  83 W5        29.97S
GRND FRKS AFB  CLEAR     56  52  85 W5        29.98S
DEVILS LAKE    CLEAR     61  52  72 CALM      30.00S
$$

NDZ022-023-025-028>030-036>039-047>053-010700-
SOUTHEAST NORTH DAKOTA

CITY           SKY/WX    TMP DP  RH WIND       PRES   REMARKS
FARGO          CLEAR     62  56  80 SW5       30.00R
6HR MIN TEMP:  60; 6HR MAX TEMP:  82;

JAMESTOWN      CLEAR     60  56  86 CALM      30.02S
$$



USA.gov is the U.S. government's official web portal to all federal, state and local government web resources and services.